• Processing (Info)

  • MPEC 2014-L36 : 2014 LX14

    The following Minor Planet Electronic Circular may be linked-to from your own Web pages, but must not otherwise be redistributed electronically.

    A form allowing access to any MPEC is at the bottom of this page.


    Read MPEC 2014-L35 Read MPEC 2014-L37


    M.P.E.C. 2014-L36                                Issued 2014 June 6, 14:24 UT
    
         The Minor Planet Electronic Circulars contain information on unusual
             minor planets and routine data on comets.  They are published
       on behalf of Commission 20 of the International Astronomical Union by the
              Minor Planet Center, Smithsonian Astrophysical Observatory,
                              Cambridge, MA 02138, U.S.A.
    
                 Prepared using the Tamkin Foundation Computer Network
    
                                  MPC@CFA.HARVARD.EDU
                URL http://www.minorplanetcenter.net/    ISSN 1523-6714
    
                                       2014 LX14
    
    Observations:
         K14L14X* C2014 06 04.27118 15 51 50.18 -18 41 42.2          19.8 VqEL036G96
         K14L14X  C2014 06 04.27667 15 51 49.85 -18 41 28.3          20.7 VqEL036G96
         K14L14X  C2014 06 04.28212 15 51 49.44 -18 41 13.1          20.5 VqEL036G96
         K14L14X  C2014 06 04.34278 15 51 45.12 -18 38 35.1          20.6 VqEL036G96
         K14L14X  C2014 06 04.34500 15 51 44.94 -18 38 29.1          20.1 VqEL036G96
         K14L14X  C2014 06 04.34721 15 51 44.81 -18 38 23.6          20.4 VqEL036G96
         K14L14X  C2014 06 04.34939 15 51 44.66 -18 38 18.0          20.5 VqEL036G96
         K14L14X  C2014 06 04.35159 15 51 44.48 -18 38 11.8          20.7 VqEL036G96
         K14L14X KC2014 06 04.95031315 51 09.27 -18 12 19.5          20.0 VqEL036I93
         K14L14X KC2014 06 04.96354615 51 08.24 -18 11 47.5          20.4 VqEL036I93
         K14L14X  C2014 06 05.24935 15 50 51.52 -17 59 23.1          21.1 VqEL036I52
         K14L14X  C2014 06 05.26352 15 50 50.52 -17 58 46.5          21.5 VqEL036I52
         K14L14X  C2014 06 05.28745 15 50 48.92 -17 57 44.2          19.9 VqEL036G96
         K14L14X  C2014 06 05.29990 15 50 48.06 -17 57 11.8          20.4 VqEL036G96
         K14L14X  C2014 06 05.30986 15 50 47.36 -17 56 45.6          20.7 VqEL036G96
         K14L14X  C2014 06 05.32254 15 50 46.51 -17 56 12.8          20.4 VqEL036G96
         K14L14X  C2014 06 06.24751 15 49 53.82 -17 16 23.1          20.5 VqEL036G96
         K14L14X  C2014 06 06.26145 15 49 52.85 -17 15 47.0          20.6 VqEL036G96
         K14L14X  C2014 06 06.27833 15 49 51.75 -17 15 03.5          20.2 VqEL036G96
         K14L14X  C2014 06 06.29737 15 49 50.49 -17 14 14.6          20.1 VqEL036G96
    
    Observer details:
    G96 Mt. Lemmon Survey.  Observers R. E. Hill, J. A. Johnson.  Measurers
        E. J. Christensen, A. R. Gibbs, A. D. Grauer, R. E. Hill, J. A. Johnson,
        R. A. Kowalski, S. M. Larson, R. J. Sanders, F. C. Shelly.  1.5-m
        reflector + CCD.
    I52 Steward Observatory, Mt. Lemmon Station.  Observer A. R. Gibbs.  Measurers
        E. J. Christensen, A. R. Gibbs, A. D. Grauer, R. E. Hill, J. A. Johnson,
        R. A. Kowalski, S. M. Larson, R. J. Sanders, F. C. Shelly.  1.0-m
        reflector + CCD.
    I93 St Pardon de Conques.  Observer F. Losse.  0.40-m f/3.7 reflector + CCD.
    
    Orbital elements:
    2014 LX14                                                Earth MOID = 0.3011 AU
    Epoch 2014 May 23.0 TT = JDT 2456800.5                  MPC
    M 300.13462              (2000.0)            P               Q
    n   0.59126487     Peri.   63.50248     +0.64633666     +0.72827515
    a   1.4058792      Node   248.69063     -0.75771857     +0.57733991
    e   0.0964812      Incl.   14.14932     -0.09006378     +0.36918009
    P   1.67           H   21.6           G   0.15           U   9
    Residuals in seconds of arc
    140604 G96  0.1-  0.1-    140604 G96  0.1-  0.2+    140605 G96  0.1+  0.1+
    140604 G96  0.8+  0.5-    140604 I93  1.1+  1.7+    140605 G96  0.4+  0.1-
    140604 G96  0.5+  0.5+    140604 I93  0.7-  0.6-    140606 G96  0.5+  0.0
    140604 G96  0.2+  0.0     140605 I52  0.0   0.3-    140606 G96  0.1-  0.2+
    140604 G96  0.1-  0.2+    140605 I52  0.3-  0.4-    140606 G96  0.2+  0.2+
    140604 G96  0.2+  0.1-    140605 G96  0.4+  0.2-    140606 G96  0.3+  0.1-
    140604 G96  0.3+  0.2-    140605 G96  0.4+  0.1-
    
    Ephemeris:
    2014 LX14                a,e,i = 1.41, 0.10, 14                  q = 1.2702
    Date    TT    R. A. (2000) Decl.     Delta      r     Elong.  Phase     V
    2014 05 07    16 22 36.3 -35 48 57   0.3930  1.3700   152.7    19.8    21.2
    ...
    2014 05 22    16 07 23.9 -27 57 49   0.3400  1.3496   171.7     6.2    20.4
    ...
    2014 05 30    15 57 39.9 -22 29 38   0.3272  1.3392   173.3     5.1    20.2
    ...
    2014 06 05    15 51 06.2 -18 09 50   0.3251  1.3316   165.3    11.1    20.5
    2014 06 06    15 50 07.8 -17 26 43   0.3254  1.3304   163.9    12.2    20.5
    2014 06 07    15 49 11.8 -16 43 50   0.3258  1.3292   162.5    13.3    20.6
    ...
    2014 06 13    15 44 33.8 -12 35 30   0.3318  1.3220   154.1    19.6    20.8
    ...
    2014 06 21    15 41 15.1 -07 42 32   0.3476  1.3129   143.8    27.2    21.1
    ...
    2014 07 06    15 44 25.2 -01 09 48   0.3950  1.2978   128.0    38.1    21.7
    
    A. U. Tomatic                (C) Copyright 2014 MPC           M.P.E.C. 2014-L36
    

    Read MPEC 2014-L35 Read MPEC 2014-L37


    MPEC number:

    Enter an MPEC number in one of the following forms:

    • 1997-B01 (the full form)
    • J97B01 (the packed version of the full form)
    • B01 (the abbreviated form)